{"data":{"norad_id":57084,"epoch":"2026-09-18T21:55:02.305632Z","epoch_age_seconds":258039,"freshness":"STALE","line1":"1 57084U 23088AN  26261.91322113  .00001246  00000+0  54795-4 0  9990","line2":"2 57084  43.0011  84.7118 0001649 265.1510  94.9154 15.27574411180057","mean_motion":15.27574411,"eccentricity":0.0001649,"inclination_deg":43.0011,"raan_deg":84.7118,"arg_perigee_deg":265.151,"mean_anomaly_deg":94.9154,"bstar":5.4795e-5,"rev_number":18005,"period_min":94.267093611324,"perigee_km":481.93441922039,"apogee_km":484.19724391424,"semimajor_km":6861.2028315673,"source":"CELESTRAK","updated_at":"2026-09-21T09:00:33.555481Z"}}